Regional Weather Roundup
Issued by NWS

Home | Current Version | Previous Version | Text Only | Print | Product List | Glossary Off
Versions: 1 2 3 4 5 6 7 8 9 10 11 12 13 14 15 16 17 18 19 20 21 22 23 24 25 26 27 28 29 30 31 32 33 34 35 36 37 38 39 40 41 42 43 44 45 46 47 48 49 50

000
ASUS45 KCYS 201710
RWRWY

WYOMING REGIONAL WEATHER ROUNDUP
NATIONAL WEATHER SERVICE CHEYENNE WY
1100 AM MDT MON OCT 20 2014

NOTE:  "FAIR" INDICATES FEW OR NO CLOUDS BELOW 12,000 FEET
WITH NO SIGNIFICANT WEATHER AND/OR OBSTRUCTIONS TO VISIBILITY.

WYZ001-201800-
YELLOWSTONE NATIONAL PARK

CITY           SKY/WX    TMP DP  RH WIND       PRES   REMARKS
LK YELLOWSTONE   N/A     45  32  60 CALM      30.23F
W YELLOWSTONE  NOT AVBL

$$
WYZ002>013-054>058-071-098>099-201800-
NORTHERN WYOMING

CITY           SKY/WX    TMP DP  RH WIND       PRES   REMARKS
JACKSON        SUNNY     43  27  52 CALM      30.20F
CODY           SUNNY    N/A N/A N/A SW3       30.02F
GREYBULL       SUNNY     53  31  42 CALM      30.03F
WORLAND        SUNNY     55  33  43 S3        30.02F
SHERIDAN       SUNNY     59  32  36 N3        29.97F
BUFFALO        SUNNY     70  29  21 E3        30.02S
GILLETTE       SUNNY     64  39  39 SE9       30.02S
HULETT         FAIR      70  36  28 S12       30.03
NEWCASTLE      FAIR      64  36  34 SE7       30.07

$$
WYZ014>020-022>026-101>103-201800-
CENTRAL WYOMING

CITY           SKY/WX    TMP DP  RH WIND       PRES   REMARKS
BIG PINEY      SUNNY     49  26  41 E5        30.22F
PINEDALE       SUNNY     50  27  40 CALM      30.22F
DUBOIS         FAIR      59  23  25 N8        30.15F
LANDER         SUNNY     57  31  37 CALM      30.09F
RIVERTON       SUNNY     53  31  42 E5        30.12S
CASPER         SUNNY     65  32  29 SW22      30.10F
DOUGLAS        SUNNY     60  36  40 SE5       30.10F

$$
WYZ021-027>030-104>119-201800-
SOUTHERN WYOMING

CITY           SKY/WX    TMP DP  RH WIND       PRES   REMARKS
EVANSTON       NOT AVBL
KEMMERER       SUNNY     55  30  38 CALM      30.22S
FORT BRIDGER   FAIR      51  31  47 CALM      30.24S
ROCK SPRINGS   SUNNY     54  32  43 NE3       30.20F
DIXON          FAIR      57  36  45 CALM      30.24F
RAWLINS        SUNNY     56  31  38 VRB3      30.22S
SARATOGA       FAIR      63  32  31 S6        30.23F
LARAMIE        SUNNY     60  35  39 S8        30.22F
CHEYENNE       SUNNY     67  33  28 SW15      30.18S
TORRINGTON     SUNNY     63  41  44 S7        30.09F
PINE BLUFFS    FAIR      64  34  32 S17       30.16S

$$


USA.gov is the U.S. government's official web portal to all federal, state and local government web resources and services.